| time (UTC) | temp F | wind direction | speed knots | gust knots | rain 1hr in | rain 24hr in | rain mn in | humidity % | barometer mb |
| 20260906141507 | 78 | 42 | 7.0 | 26.9 | 0.00 | 0.00 | 0.00 | 38 | 1023.5 |
| 20260906140007 | 78 | 29 | 5.2 | 13.9 | 0.00 | 0.00 | 0.00 | 39 | 1023.6 |
| 20260906134505 | 78 | 346 | 0.0 | 23.5 | 0.00 | 0.00 | 0.00 | 40 | 1023.7 |
| 20260906133004 | 78 | 15 | 4.3 | 19.1 | 0.00 | 0.00 | 0.00 | 40 | 1023.8 |
| 20260906131509 | 77 | 53 | 0.0 | 20.0 | 0.00 | 0.00 | 0.00 | 41 | 1023.9 |
| 20260906124557 | 76 | 340 | 8.7 | 20.0 | 0.00 | 0.00 | 0.00 | 42 | 1023.9 |
| 20260906123054 | 76 | 35 | 14.8 | 26.9 | 0.00 | 0.00 | 0.00 | 42 | 1024.1 |
| 20260906121554 | 75 | 328 | 16.5 | 29.5 | 0.00 | 0.00 | 0.00 | 44 | 1024.2 |
| 20260906120056 | 75 | 7 | 8.7 | 24.3 | 0.00 | 0.00 | 0.00 | 44 | 1024.2 |
| 20260906114552 | 75 | 63 | 10.4 | 25.2 | 0.00 | 0.00 | 0.00 | 44 | 1024.3 |
| 20260906113058 | 74 | 354 | 13.0 | 20.9 | 0.00 | 0.00 | 0.00 | 45 | 1024.5 |
| 20260906111550 | 74 | 346 | 9.6 | 28.7 | 0.00 | 0.00 | 0.00 | 46 | 1024.6 |
| 20260906110046 | 74 | 13 | 12.2 | 24.3 | 0.00 | 0.00 | 0.00 | 47 | 1024.8 |
| 20260906104555 | 73 | 44 | 15.6 | 26.9 | 0.00 | 0.00 | 0.00 | 46 | 1024.9 |
| 20260906103042 | 72 | 30 | 13.9 | 27.8 | 0.00 | 0.00 | 0.00 | 48 | 1024.9 |
| 20260906101540 | 72 | 35 | 7.8 | 35.6 | 0.00 | 0.00 | 0.00 | 48 | 1025.0 |
| 20260906100043 | 72 | 349 | 11.3 | 20.9 | 0.00 | 0.00 | 0.00 | 48 | 1025.2 |
| 20260906094559 | 71 | 17 | 13.9 | 26.1 | 0.00 | 0.00 | 0.00 | 49 | 1025.1 |
| 20260906093037 | 71 | 40 | 8.7 | 22.6 | 0.00 | 0.00 | 0.00 | 50 | 1025.4 |
| 20260906091534 | 70 | 344 | 8.7 | 20.0 | 0.00 | 0.00 | 0.00 | 51 | 1025.5 |
| 20260906090027 | 70 | 359 | 13.9 | 33.9 | 0.00 | 0.00 | 0.00 | 51 | 1025.4 |
| 20260906084523 | 69 | 328 | 9.6 | 20.0 | 0.00 | 0.00 | 0.00 | 52 | 1025.6 |
| 20260906083017 | 69 | 3 | 13.9 | 23.5 | 0.00 | 0.00 | 0.00 | 53 | 1025.7 |
| 20260906081535 | 68 | 340 | 12.2 | 23.5 | 0.00 | 0.00 | 0.00 | 53 | 1025.7 |
| 20260906080010 | 68 | 10 | 11.3 | 23.5 | 0.00 | 0.00 | 0.00 | 54 | 1025.5 |
| 20260906074506 | 67 | 5 | 10.4 | 20.0 | 0.00 | 0.00 | 0.00 | 54 | 1025.5 |
| 20260906073003 | 67 | 27 | 8.7 | 18.2 | 0.00 | 0.00 | 0.00 | 56 | 1025.4 |
| 20260906071559 | 66 | 3 | 5.2 | 22.6 | 0.00 | 0.00 | 0.00 | 56 | 1025.3 |
| 20260906070055 | 66 | 359 | 3.5 | 17.4 | 0.00 | 0.00 | 0.00 | 58 | 1025.1 |
| 20260906064551 | 65 | 324 | 13.0 | 20.0 | 0.00 | 0.00 | 0.00 | 58 | 1025.0 |
| 20260906063047 | 65 | 350 | 8.7 | 21.7 | 0.00 | 0.00 | 0.00 | 58 | 1025.0 |
| 20260906061544 | 64 | 3 | 7.0 | 19.1 | 0.00 | 0.00 | 0.00 | 60 | 1024.9 |
| 20260906060042 | 64 | 356 | 1.7 | 14.8 | 0.00 | 0.00 | 0.00 | 61 | 1024.7 |
| 20260906054537 | 63 | 353 | 8.7 | 20.0 | 0.00 | 0.00 | 0.00 | 62 | 1024.5 |
| 20260906053034 | 62 | 356 | 0.0 | 11.3 | 0.00 | 0.00 | 0.00 | 63 | 1024.4 |
| 20260906051532 | 62 | 356 | 0.0 | 0.0 | 0.00 | 0.00 | 0.00 | 64 | 1024.4 |
| 20260906050029 | 62 | 356 | 0.0 | 0.0 | 0.00 | 0.00 | 0.00 | 63 | 1024.3 |
| 20260906044530 | 62 | 356 | 0.0 | 0.0 | 0.00 | 0.00 | 0.00 | 63 | 1024.2 |
| 20260906043023 | 62 | 356 | 0.0 | 0.0 | 0.00 | 0.00 | 0.00 | 63 | 1024.0 |
| 20260906041520 | 62 | 356 | 0.0 | 0.0 | 0.00 | 0.00 | 0.00 | 63 | 1023.9 |
| 20260906040022 | 62 | 356 | 0.0 | 0.0 | 0.00 | 0.00 | 0.00 | 62 | 1023.7 |
| 20260906034516 | 63 | 356 | 0.0 | 10.4 | 0.00 | 0.00 | 0.00 | 62 | 1023.6 |
| 20260906033015 | 63 | 356 | 0.9 | 11.3 | 0.00 | 0.00 | 0.00 | 61 | 1023.5 |
| 20260906031523 | 63 | 356 | 0.0 | 13.0 | 0.00 | 0.00 | 0.00 | 61 | 1023.4 |
| 20260906030012 | 64 | 356 | 0.9 | 11.3 | 0.00 | 0.00 | 0.00 | 60 | 1023.4 |
| 20260906024510 | 64 | 356 | 0.0 | 0.0 | 0.00 | 0.00 | 0.00 | 61 | 1023.3 |
| 20260906023015 | 63 | 356 | 0.0 | 0.0 | 0.00 | 0.00 | 0.00 | 63 | 1023.3 |
| 20260906021510 | 64 | 356 | 0.0 | 0.0 | 0.00 | 0.00 | 0.00 | 64 | 1023.3 |
| 20260906020006 | 64 | 356 | 0.0 | 0.0 | 0.00 | 0.00 | 0.00 | 65 | 1023.2 |
| 20260906014505 | 64 | 356 | 0.0 | 0.0 | 0.00 | 0.00 | 0.00 | 65 | 1023.1 |
| 20260906013003 | 64 | 356 | 0.0 | 8.7 | 0.00 | 0.00 | 0.00 | 66 | 1023.0 |
| 20260906011603 | 65 | 356 | 4.3 | 10.4 | 0.00 | 0.00 | 0.00 | 66 | 1023.0 |
| 20260906010106 | 65 | 356 | 4.3 | 13.0 | 0.00 | 0.00 | 0.00 | 66 | 1022.8 |
| 20260906004557 | 66 | 356 | 4.3 | 11.3 | 0.00 | 0.00 | 0.00 | 66 | 1022.7 |
| 20260906003053 | 66 | 353 | 7.8 | 13.9 | 0.00 | 0.00 | 0.00 | 65 | 1022.4 |
| 20260906001604 | 67 | 351 | 0.0 | 13.0 | 0.00 | 0.00 | 0.00 | 67 | 1022.5 |
| 20260906000048 | 67 | 349 | 7.8 | 14.8 | 0.00 | 0.00 | 0.00 | 66 | 1022.4 |
| 20260905234545 | 67 | 344 | 6.1 | 11.3 | 0.00 | 0.00 | 0.00 | 66 | 1022.2 |
| 20260905233043 | 68 | 350 | 8.7 | 14.8 | 0.00 | 0.00 | 0.00 | 64 | 1022.0 |
| 20260905231541 | 68 | 353 | 7.8 | 14.8 | 0.00 | 0.00 | 0.00 | 65 | 1021.9 |
| 20260905230037 | 69 | 360 | 0.0 | 18.2 | 0.00 | 0.00 | 0.00 | 64 | 1021.7 |
| 20260905224533 | 69 | 353 | 9.6 | 16.5 | 0.00 | 0.00 | 0.00 | 64 | 1021.6 |
| 20260905223037 | 69 | 348 | 3.5 | 18.2 | 0.00 | 0.00 | 0.00 | 63 | 1021.5 |
| 20260905221539 | 69 | 331 | 13.0 | 20.9 | 0.00 | 0.00 | 0.00 | 63 | 1021.2 |
| 20260905220028 | 70 | 342 | 7.8 | 18.2 | 0.00 | 0.00 | 0.00 | 62 | 1021.1 |
| 20260905214523 | 70 | 342 | 9.6 | 20.9 | 0.00 | 0.00 | 0.00 | 62 | 1021.0 |
| 20260905213022 | 70 | 334 | 12.2 | 23.5 | 0.00 | 0.00 | 0.00 | 61 | 1020.8 |
| 20260905211536 | 70 | 333 | 14.8 | 27.8 | 0.00 | 0.00 | 0.00 | 60 | 1020.7 |
| 20260905210019 | 70 | 327 | 10.4 | 21.7 | 0.00 | 0.00 | 0.00 | 60 | 1020.6 |
| 20260905204518 | 71 | 329 | 11.3 | 19.1 | 0.00 | 0.00 | 0.00 | 59 | 1020.6 |
| 20260905203017 | 71 | 342 | 12.2 | 32.2 | 0.00 | 0.00 | 0.00 | 59 | 1020.5 |
| 20260905201516 | 71 | 333 | 7.0 | 27.8 | 0.00 | 0.00 | 0.00 | 60 | 1020.5 |
| 20260905200019 | 71 | 326 | 14.8 | 25.2 | 0.00 | 0.00 | 0.00 | 60 | 1020.3 |
| 20260905194513 | 71 | 315 | 7.8 | 27.8 | 0.00 | 0.00 | 0.00 | 61 | 1020.2 |
| 20260905193012 | 71 | 300 | 14.8 | 30.4 | 0.00 | 0.00 | 0.00 | 61 | 1020.1 |
| 20260905191511 | 71 | 316 | 8.7 | 27.8 | 0.00 | 0.00 | 0.00 | 61 | 1020.1 |
| 20260905190010 | 71 | 323 | 5.2 | 18.2 | 0.00 | 0.00 | 0.00 | 61 | 1019.9 |
| 20260905184508 | 72 | 327 | 12.2 | 21.7 | 0.00 | 0.00 | 0.00 | 59 | 1019.7 |
| 20260905183006 | 72 | 328 | 10.4 | 20.9 | 0.00 | 0.00 | 0.00 | 58 | 1019.5 |
| 20260905181506 | 72 | 324 | 13.0 | 34.8 | 0.00 | 0.00 | 0.00 | 57 | 1019.2 |
| 20260905180005 | 73 | 325 | 11.3 | 29.5 | 0.00 | 0.00 | 0.00 | 57 | 1019.1 |
| 20260905174503 | 73 | 315 | 8.7 | 30.4 | 0.00 | 0.00 | 0.00 | 56 | 1018.9 |
| 20260905173007 | 73 | 328 | 18.2 | 29.5 | 0.00 | 0.00 | 0.00 | 55 | 1018.7 |
| 20260905171506 | 74 | 325 | 13.0 | 26.1 | 0.00 | 0.00 | 0.00 | 53 | 1018.6 |
| 20260905170002 | 75 | 313 | 15.6 | 36.5 | 0.00 | 0.00 | 0.00 | 52 | 1018.5 |
| 20260905164502 | 75 | 330 | 18.2 | 40.0 | 0.00 | 0.00 | 0.00 | 51 | 1018.2 |
| 20260905163002 | 75 | 305 | 20.9 | 40.0 | 0.00 | 0.00 | 0.00 | 51 | 1018.1 |
| 20260905161606 | 75 | 320 | 22.6 | 39.1 | 0.00 | 0.00 | 0.00 | 51 | 1018.1 |
| 20260905160100 | 76 | 311 | 19.1 | 38.2 | 0.00 | 0.00 | 0.00 | 51 | 1017.9 |
| 20260905154559 | 76 | 343 | 24.3 | 47.8 | 0.00 | 0.00 | 0.00 | 50 | 1018.1 |
| 20260905153058 | 76 | 306 | 23.5 | 43.4 | 0.00 | 0.00 | 0.00 | 50 | 1017.9 |
| 20260905151558 | 76 | 338 | 26.9 | 41.7 | 0.00 | 0.00 | 0.00 | 50 | 1017.8 |
| 20260905150057 | 76 | 304 | 16.5 | 38.2 | 0.00 | 0.00 | 0.00 | 51 | 1017.8 |
| 20260905144557 | 76 | 348 | 24.3 | 40.0 | 0.00 | 0.00 | 0.00 | 51 | 1017.8 |
| 20260905143055 | 76 | 315 | 10.4 | 34.8 | 0.00 | 0.00 | 0.00 | 52 | 1018.0 |